Time,TemperatureF,DewpointF,PressureIn,WindDirection,WindDirectionDegrees,WindSpeedMPH,WindSpeedGustMPH,Humidity,HourlyPrecipIn,Conditions,Clouds,dailyrainin,SoftwareType,DateUTC
2013-02-01 00:00:00,12.1,7.4,30.02,West,273,4.0,20.0,81,0.00,,---,0.00,VWS V14.00,2013-02-01 05:00:00,
2013-02-01 00:02:00,12.1,7.4,30.02,West,273,4.0,13.0,81,0.00,,---,0.00,VWS V14.00,2013-02-01 05:02:00,
2013-02-01 00:03:00,12.1,7.4,30.03,West,273,18.0,18.0,81,0.00,,---,0.00,VWS V14.00,2013-02-01 05:03:00,
2013-02-01 00:08:00,12.0,7.3,30.03,West,273,4.0,18.0,81,0.00,,---,0.00,VWS V14.00,2013-02-01 05:08:00,
2013-02-01 00:13:00,11.9,7.2,30.03,West,273,7.0,18.0,81,0.00,,---,0.00,VWS V14.00,2013-02-01 05:13:00,
2013-02-01 00:19:00,11.8,6.8,30.03,West,273,8.0,18.0,80,0.00,,---,0.00,VWS V14.00,2013-02-01 05:19:00,
2013-02-01 00:24:00,11.6,6.4,30.03,West,274,7.0,18.0,79,0.00,,---,0.00,VWS V14.00,2013-02-01 05:24:00,
2013-02-01 00:29:00,11.5,6.3,30.03,West,273,11.0,18.0,79,0.00,,---,0.00,VWS V14.00,2013-02-01 05:29:00,
2013-02-01 00:34:00,11.4,6.2,30.04,West,274,2.0,15.0,79,0.00,,---,0.00,VWS V14.00,2013-02-01 05:34:00,
2013-02-01 00:39:00,11.3,5.8,30.04,West,273,8.0,20.0,78,0.00,,---,0.00,VWS V14.00,2013-02-01 05:39:00,
2013-02-01 00:44:00,11.1,5.6,30.04,West,273,7.0,20.0,78,0.00,,---,0.00,VWS V14.00,2013-02-01 05:44:00,
2013-02-01 00:49:00,11.0,5.5,30.05,West,273,7.0,20.0,78,0.00,,---,0.00,VWS V14.00,2013-02-01 05:49:00,
2013-02-01 00:54:00,11.0,5.5,30.05,West,273,6.0,20.0,78,0.00,,---,0.00,VWS V14.00,2013-02-01 05:54:00,
2013-02-01 00:59:00,10.9,5.4,30.05,West,274,7.0,21.0,78,0.00,,---,0.00,VWS V14.00,2013-02-01 05:59:00,
2013-02-01 01:04:00,10.8,5.3,30.05,West,273,9.0,21.0,78,0.00,,---,0.00,VWS V14.00,2013-02-01 06:04:00,
2013-02-01 01:09:00,10.7,5.5,30.06,West,273,6.0,21.0,79,0.00,,---,0.00,VWS V14.00,2013-02-01 06:09:00,
2013-02-01 01:14:00,10.7,5.5,30.06,West,273,9.0,21.0,79,0.00,,---,0.00,VWS V14.00,2013-02-01 06:14:00,
2013-02-01 01:20:00,10.6,5.4,30.06,West,274,12.0,23.0,79,0.00,,---,0.00,VWS V14.00,2013-02-01 06:20:00,
2013-02-01 01:25:00,10.5,5.3,30.06,West,274,6.0,23.0,79,0.00,,---,0.00,VWS V14.00,2013-02-01 06:25:00,
2013-02-01 01:30:00,10.4,4.9,30.07,West,274,9.0,23.0,78,0.00,,---,0.00,VWS V14.00,2013-02-01 06:30:00,
2013-02-01 01:35:00,10.3,5.1,30.07,West,273,12.0,15.0,79,0.00,,---,0.00,VWS V14.00,2013-02-01 06:35:00,
2013-02-01 01:40:00,10.2,5.0,30.07,West,274,4.0,15.0,79,0.00,,---,0.00,VWS V14.00,2013-02-01 06:40:00,
2013-02-01 01:45:00,10.0,4.8,30.07,West,273,9.0,20.0,79,0.00,,---,0.00,VWS V14.00,2013-02-01 06:45:00,
2013-02-01 01:50:00,9.9,4.7,30.07,West,274,9.0,20.0,79,0.00,,---,0.00,VWS V14.00,2013-02-01 06:50:00,
2013-02-01 01:55:00,9.8,4.9,30.08,West,274,6.0,20.0,80,0.00,,---,0.00,VWS V14.00,2013-02-01 06:55:00,
2013-02-01 02:00:00,9.7,4.8,30.08,West,273,8.0,13.0,80,0.00,,---,0.00,VWS V14.00,2013-02-01 07:00:00,
2013-02-01 02:05:00,9.7,4.8,30.08,West,274,5.0,16.0,80,0.00,,---,0.00,VWS V14.00,2013-02-01 07:05:00,
2013-02-01 02:10:00,9.7,4.8,30.09,West,273,8.0,22.0,80,0.00,,---,0.00,VWS V14.00,2013-02-01 07:10:00,
2013-02-01 02:15:00,9.6,4.7,30.09,West,274,7.0,22.0,80,0.00,,---,0.00,VWS V14.00,2013-02-01 07:15:00,
2013-02-01 02:20:00,9.5,4.6,30.09,West,273,5.0,23.0,80,0.00,,---,0.00,VWS V14.00,2013-02-01 07:20:00,
2013-02-01 02:26:00,9.4,4.5,30.10,West,273,9.0,23.0,80,0.00,,---,0.00,VWS V14.00,2013-02-01 07:26:00,
2013-02-01 02:31:00,9.4,4.2,30.10,West,273,6.0,13.0,79,0.00,,---,0.00,VWS V14.00,2013-02-01 07:31:00,
2013-02-01 02:36:00,9.3,4.1,30.10,West,273,5.0,20.0,79,0.00,,---,0.00,VWS V14.00,2013-02-01 07:36:00,
2013-02-01 02:41:00,9.2,4.0,30.10,West,274,4.0,20.0,79,0.00,,---,0.00,VWS V14.00,2013-02-01 07:41:00,
2013-02-01 02:46:00,9.2,4.0,30.11,West,274,15.0,20.0,79,0.00,,---,0.00,VWS V14.00,2013-02-01 07:46:00,
2013-02-01 02:51:00,9.2,4.0,30.11,West,273,12.0,20.0,79,0.00,,---,0.00,VWS V14.00,2013-02-01 07:51:00,
2013-02-01 02:56:00,9.2,4.0,30.12,West,274,16.0,21.0,79,0.00,,---,0.00,VWS V14.00,2013-02-01 07:56:00,
2013-02-01 03:01:00,9.2,4.0,30.12,West,273,8.0,13.0,79,0.00,,---,0.00,VWS V14.00,2013-02-01 08:01:00,
2013-02-01 03:06:00,9.1,3.9,30.12,West,274,6.0,13.0,79,0.00,,---,0.00,VWS V14.00,2013-02-01 08:06:00,
2013-02-01 03:11:00,9.1,3.7,30.12,West,274,8.0,19.0,78,0.00,,---,0.00,VWS V14.00,2013-02-01 08:11:00,
2013-02-01 03:16:00,9.0,3.5,30.13,West,274,7.0,19.0,78,0.00,,---,0.00,VWS V14.00,2013-02-01 08:16:00,
2013-02-01 03:21:00,9.0,3.5,30.13,West,274,7.0,21.0,78,0.00,,---,0.00,VWS V14.00,2013-02-01 08:21:00,
2013-02-01 03:26:00,8.9,3.5,30.13,West,273,11.0,21.0,78,0.00,,---,0.00,VWS V14.00,2013-02-01 08:26:00,
2013-02-01 03:31:00,8.8,3.4,30.13,West,274,11.0,25.0,78,0.00,,---,0.00,VWS V14.00,2013-02-01 08:31:00,
2013-02-01 03:36:00,8.7,3.3,30.13,West,273,9.0,25.0,78,0.00,,---,0.00,VWS V14.00,2013-02-01 08:36:00,
2013-02-01 03:42:00,8.7,3.3,30.13,West,274,13.0,25.0,78,0.00,,---,0.00,VWS V14.00,2013-02-01 08:42:00,
2013-02-01 03:47:00,8.6,3.2,30.14,West,273,11.0,25.0,78,0.00,,---,0.00,VWS V14.00,2013-02-01 08:47:00,
2013-02-01 03:52:00,8.6,3.2,30.14,West,273,6.0,25.0,78,0.00,,---,0.00,VWS V14.00,2013-02-01 08:52:00,
2013-02-01 03:57:00,8.5,3.1,30.15,West,273,9.0,25.0,78,0.00,,---,0.00,VWS V14.00,2013-02-01 08:57:00,
2013-02-01 04:02:00,8.4,3.0,30.15,West,273,11.0,18.0,78,0.00,,---,0.00,VWS V14.00,2013-02-01 09:02:00,
2013-02-01 04:07:00,8.3,2.6,30.15,West,274,15.0,23.0,77,0.00,,---,0.00,VWS V14.00,2013-02-01 09:07:00,
2013-02-01 04:12:00,8.3,2.9,30.15,West,274,5.0,23.0,78,0.00,,---,0.00,VWS V14.00,2013-02-01 09:12:00,
2013-02-01 04:17:00,8.3,2.9,30.16,West,273,7.0,23.0,78,0.00,,---,0.00,VWS V14.00,2013-02-01 09:17:00,
2013-02-01 04:22:00,8.3,2.9,30.16,West,274,9.0,23.0,78,0.00,,---,0.00,VWS V14.00,2013-02-01 09:22:00,
2013-02-01 04:27:00,8.2,2.5,30.16,West,273,8.0,23.0,77,0.00,,---,0.00,VWS V14.00,2013-02-01 09:27:00,
2013-02-01 04:32:00,8.2,2.5,30.16,West,274,9.0,18.0,77,0.00,,---,0.00,VWS V14.00,2013-02-01 09:32:00,
2013-02-01 04:37:00,8.1,2.4,30.17,West,273,6.0,21.0,77,0.00,,---,0.00,VWS V14.00,2013-02-01 09:37:00,
2013-02-01 04:42:00,8.1,2.4,30.17,West,274,12.0,21.0,77,0.00,,---,0.00,VWS V14.00,2013-02-01 09:42:00,
2013-02-01 04:47:00,8.0,2.3,30.17,West,273,7.0,21.0,77,0.00,,---,0.00,VWS V14.00,2013-02-01 09:47:00,
2013-02-01 04:52:00,7.9,2.2,30.17,West,273,12.0,21.0,77,0.00,,---,0.00,VWS V14.00,2013-02-01 09:52:00,
2013-02-01 04:58:00,7.8,2.1,30.18,West,274,5.0,21.0,77,0.00,,---,0.00,VWS V14.00,2013-02-01 09:58:00,
2013-02-01 05:03:00,7.8,2.4,30.18,West,274,6.0,18.0,78,0.00,,---,0.00,VWS V14.00,2013-02-01 10:03:00,
2013-02-01 05:08:00,7.7,2.3,30.18,West,273,12.0,18.0,78,0.00,,---,0.00,VWS V14.00,2013-02-01 10:08:00,
2013-02-01 05:13:00,7.7,2.3,30.18,West,274,12.0,20.0,78,0.00,,---,0.00,VWS V14.00,2013-02-01 10:13:00,
2013-02-01 05:18:00,7.8,2.4,30.19,West,274,13.0,20.0,78,0.00,,---,0.00,VWS V14.00,2013-02-01 10:18:00,
2013-02-01 05:23:00,7.7,2.0,30.19,West,274,5.0,20.0,77,0.00,,---,0.00,VWS V14.00,2013-02-01 10:23:00,
2013-02-01 05:28:00,7.6,1.9,30.19,West,273,5.0,20.0,77,0.00,,---,0.00,VWS V14.00,2013-02-01 10:28:00,
2013-02-01 05:33:00,7.6,2.2,30.19,West,273,8.0,14.0,78,0.00,,---,0.00,VWS V14.00,2013-02-01 10:33:00,
2013-02-01 05:38:00,7.4,2.0,30.20,West,273,11.0,28.0,78,0.00,,---,0.00,VWS V14.00,2013-02-01 10:38:00,
2013-02-01 05:43:00,7.3,1.6,30.20,West,273,11.0,28.0,77,0.00,,---,0.00,VWS V14.00,2013-02-01 10:43:00,
2013-02-01 05:48:00,7.2,1.5,30.20,West,273,12.0,28.0,77,0.00,,---,0.00,VWS V14.00,2013-02-01 10:48:00,
2013-02-01 05:53:00,7.1,1.4,30.20,West,274,6.0,28.0,77,0.00,,---,0.00,VWS V14.00,2013-02-01 10:53:00,
2013-02-01 05:58:00,7.1,1.4,30.21,West,273,15.0,28.0,77,0.00,,---,0.00,VWS V14.00,2013-02-01 10:58:00,
2013-02-01 06:03:00,7.0,1.3,30.21,West,274,6.0,16.0,77,0.00,,---,0.00,VWS V14.00,2013-02-01 11:03:00,
2013-02-01 06:09:00,7.0,1.3,30.21,West,273,6.0,18.0,77,0.00,,---,0.00,VWS V14.00,2013-02-01 11:09:00,
2013-02-01 06:14:00,7.0,1.6,30.22,West,273,4.0,18.0,78,0.00,,---,0.00,VWS V14.00,2013-02-01 11:14:00,
2013-02-01 06:19:00,6.9,1.2,30.22,West,273,15.0,21.0,77,0.00,,---,0.00,VWS V14.00,2013-02-01 11:19:00,
2013-02-01 06:24:00,6.9,1.2,30.22,West,274,8.0,21.0,77,0.00,,---,0.00,VWS V14.00,2013-02-01 11:24:00,
2013-02-01 06:29:00,6.8,1.1,30.23,West,274,19.0,21.0,77,0.00,,---,0.00,VWS V14.00,2013-02-01 11:29:00,
2013-02-01 06:34:00,6.7,1.0,30.23,West,273,7.0,19.0,77,0.00,,---,0.00,VWS V14.00,2013-02-01 11:34:00,
2013-02-01 06:39:00,6.7,1.3,30.23,West,273,9.0,19.0,78,0.00,,---,0.00,VWS V14.00,2013-02-01 11:39:00,
2013-02-01 06:44:00,6.7,1.3,30.23,West,274,9.0,19.0,78,0.00,,---,0.00,VWS V14.00,2013-02-01 11:44:00,
2013-02-01 06:49:00,6.6,1.2,30.24,West,273,7.0,19.0,78,0.00,,---,0.00,VWS V14.00,2013-02-01 11:49:00,
2013-02-01 06:54:00,6.5,1.1,30.24,West,273,11.0,19.0,78,0.00,,---,0.00,VWS V14.00,2013-02-01 11:54:00,
2013-02-01 06:59:00,6.5,1.1,30.25,West,273,8.0,21.0,78,0.00,,---,0.00,VWS V14.00,2013-02-01 11:59:00,
2013-02-01 07:04:00,6.4,1.0,30.24,West,273,13.0,18.0,78,0.00,,---,0.00,VWS V14.00,2013-02-01 12:04:00,
2013-02-01 07:09:00,6.4,1.0,30.25,West,274,11.0,19.0,78,0.00,,---,0.00,VWS V14.00,2013-02-01 12:09:00,
2013-02-01 07:14:00,6.4,1.0,30.25,West,273,20.0,20.0,78,0.00,,---,0.00,VWS V14.00,2013-02-01 12:14:00,
2013-02-01 07:20:00,6.3,0.9,30.25,West,273,6.0,21.0,78,0.00,,---,0.00,VWS V14.00,2013-02-01 12:20:00,
2013-02-01 07:25:00,6.2,0.8,30.25,West,273,13.0,21.0,78,0.00,,---,0.00,VWS V14.00,2013-02-01 12:25:00,
2013-02-01 07:30:00,6.2,0.8,30.26,West,273,7.0,21.0,78,0.00,,---,0.00,VWS V14.00,2013-02-01 12:30:00,
2013-02-01 07:35:00,6.3,0.9,30.26,West,273,5.0,12.0,78,0.00,,---,0.00,VWS V14.00,2013-02-01 12:35:00,
2013-02-01 07:40:00,6.2,0.8,30.27,West,273,9.0,21.0,78,0.00,,---,0.00,VWS V14.00,2013-02-01 12:40:00,
2013-02-01 07:45:00,6.0,0.3,30.27,West,273,8.0,21.0,77,0.00,,---,0.00,VWS V14.00,2013-02-01 12:45:00,
2013-02-01 07:50:00,5.9,0.5,30.27,West,273,7.0,21.0,78,0.00,,---,0.00,VWS V14.00,2013-02-01 12:50:00,
2013-02-01 07:55:00,5.9,0.5,30.27,West,273,8.0,21.0,78,0.00,,---,0.00,VWS V14.00,2013-02-01 12:55:00,
2013-02-01 08:00:00,5.8,0.4,30.27,West,273,5.0,7.0,78,0.00,,---,0.00,VWS V14.00,2013-02-01 13:00:00,
2013-02-01 08:05:00,5.8,0.4,30.28,West,273,9.0,21.0,78,0.00,,---,0.00,VWS V14.00,2013-02-01 13:05:00,
2013-02-01 08:10:00,5.8,0.4,30.28,West,273,5.0,21.0,78,0.00,,---,0.00,VWS V14.00,2013-02-01 13:10:00,
2013-02-01 08:15:00,5.8,0.4,30.28,West,273,4.0,21.0,78,0.00,,---,0.00,VWS V14.00,2013-02-01 13:15:00,
2013-02-01 08:20:00,5.8,0.4,30.28,West,274,11.0,21.0,78,0.00,,---,0.00,VWS V14.00,2013-02-01 13:20:00,
2013-02-01 08:25:00,5.9,0.5,30.29,West,274,12.0,21.0,78,0.00,,---,0.00,VWS V14.00,2013-02-01 13:25:00,
2013-02-01 08:30:00,5.9,0.5,30.29,West,273,8.0,16.0,78,0.00,,---,0.00,VWS V14.00,2013-02-01 13:30:00,
2013-02-01 08:35:00,5.9,0.3,30.29,West,274,9.0,19.0,77,0.00,,---,0.00,VWS V14.00,2013-02-01 13:35:00,
2013-02-01 08:41:00,6.0,0.6,30.30,West,273,11.0,19.0,78,0.00,,---,0.00,VWS V14.00,2013-02-01 13:41:00,
2013-02-01 08:46:00,6.1,0.4,30.30,West,274,6.0,19.0,77,0.00,,---,0.00,VWS V14.00,2013-02-01 13:46:00,
2013-02-01 08:51:00,6.2,0.6,30.30,West,274,11.0,19.0,77,0.00,,---,0.00,VWS V14.00,2013-02-01 13:51:00,
2013-02-01 08:56:00,6.3,0.6,30.30,West,273,9.0,19.0,77,0.00,,---,0.00,VWS V14.00,2013-02-01 13:56:00,
2013-02-01 09:01:00,6.4,0.7,30.30,West,273,4.0,18.0,77,0.00,,---,0.00,VWS V14.00,2013-02-01 14:01:00,
2013-02-01 09:06:00,6.6,0.9,30.31,West,273,6.0,18.0,77,0.00,,---,0.00,VWS V14.00,2013-02-01 14:06:00,
2013-02-01 09:11:00,6.8,1.1,30.31,West,274,6.0,18.0,77,0.00,,---,0.00,VWS V14.00,2013-02-01 14:11:00,
2013-02-01 09:16:00,7.0,1.0,30.31,West,273,9.0,18.0,76,0.00,,---,0.00,VWS V14.00,2013-02-01 14:16:00,
2013-02-01 09:21:00,7.2,1.2,30.31,West,273,12.0,18.0,76,0.00,,---,0.00,VWS V14.00,2013-02-01 14:21:00,
2013-02-01 09:26:00,7.4,1.4,30.32,West,273,4.0,18.0,76,0.00,,---,0.00,VWS V14.00,2013-02-01 14:26:00,
2013-02-01 09:31:00,7.7,1.7,30.32,West,274,8.0,9.0,76,0.00,,---,0.00,VWS V14.00,2013-02-01 14:31:00,
2013-02-01 09:36:00,7.8,1.5,30.32,West,273,19.0,20.0,75,0.00,,---,0.00,VWS V14.00,2013-02-01 14:36:00,
2013-02-01 09:41:00,7.8,1.5,30.32,West,273,9.0,20.0,75,0.00,,---,0.00,VWS V14.00,2013-02-01 14:41:00,
2013-02-01 09:46:00,8.2,2.2,30.33,West,273,8.0,20.0,76,0.00,,---,0.00,VWS V14.00,2013-02-01 14:46:00,
2013-02-01 09:51:00,8.4,2.1,30.33,West,273,2.0,20.0,75,0.00,,---,0.00,VWS V14.00,2013-02-01 14:51:00,
2013-02-01 09:56:00,8.5,2.2,30.33,West,273,9.0,20.0,75,0.00,,---,0.00,VWS V14.00,2013-02-01 14:56:00,
2013-02-01 10:02:00,8.8,2.2,30.33,West,274,15.0,15.0,74,0.00,,---,0.00,VWS V14.00,2013-02-01 15:02:00,
2013-02-01 10:07:00,9.0,2.4,30.33,West,273,13.0,16.0,74,0.00,,---,0.00,VWS V14.00,2013-02-01 15:07:00,
2013-02-01 10:12:00,9.1,2.5,30.33,West,273,7.0,16.0,74,0.00,,---,0.00,VWS V14.00,2013-02-01 15:12:00,
2013-02-01 10:17:00,9.3,2.7,30.33,West,273,6.0,19.0,74,0.00,,---,0.00,VWS V14.00,2013-02-01 15:17:00,
2013-02-01 10:22:00,9.5,2.9,30.33,West,274,4.0,19.0,74,0.00,,---,0.00,VWS V14.00,2013-02-01 15:22:00,
2013-02-01 10:27:00,9.9,3.3,30.34,West,274,6.0,19.0,74,0.00,,---,0.00,VWS V14.00,2013-02-01 15:27:00,
2013-02-01 10:32:00,10.1,3.5,30.33,West,274,7.0,7.0,74,0.00,,---,0.00,VWS V14.00,2013-02-01 15:32:00,
2013-02-01 10:37:00,10.4,3.8,30.34,West,273,7.0,16.0,74,0.00,,---,0.00,VWS V14.00,2013-02-01 15:37:00,
2013-02-01 10:42:00,10.4,3.8,30.34,West,274,7.0,16.0,74,0.00,,---,0.00,VWS V14.00,2013-02-01 15:42:00,
2013-02-01 10:47:00,10.4,3.8,30.34,West,273,8.0,16.0,74,0.00,,---,0.00,VWS V14.00,2013-02-01 15:47:00,
2013-02-01 10:52:00,10.2,3.3,30.35,West,273,9.0,18.0,73,0.00,,---,0.00,VWS V14.00,2013-02-01 15:52:00,
2013-02-01 10:57:00,10.2,3.3,30.35,West,273,12.0,18.0,73,0.00,,---,0.00,VWS V14.00,2013-02-01 15:57:00,
2013-02-01 11:02:00,10.3,3.7,30.35,West,273,11.0,18.0,74,0.00,,---,0.00,VWS V14.00,2013-02-01 16:02:00,
2013-02-01 11:07:00,10.3,4.0,30.35,West,274,6.0,18.0,75,0.00,,---,0.00,VWS V14.00,2013-02-01 16:07:00,
2013-02-01 11:12:00,10.4,3.8,30.35,West,273,11.0,18.0,74,0.00,,---,0.00,VWS V14.00,2013-02-01 16:12:00,
2013-02-01 11:17:00,10.5,3.9,30.36,West,273,11.0,18.0,74,0.00,,---,0.00,VWS V14.00,2013-02-01 16:17:00,
2013-02-01 11:22:00,10.5,3.6,30.35,West,273,5.0,18.0,73,0.00,,---,0.00,VWS V14.00,2013-02-01 16:22:00,
2013-02-01 11:27:00,10.7,4.3,30.36,West,274,11.0,18.0,75,0.00,,---,0.00,VWS V14.00,2013-02-01 16:27:00,
2013-02-01 11:32:00,11.0,4.6,30.36,West,274,12.0,13.0,75,0.00,,---,0.00,VWS V14.00,2013-02-01 16:32:00,
2013-02-01 11:38:00,11.1,4.2,30.36,West,274,7.0,16.0,73,0.00,,---,0.00,VWS V14.00,2013-02-01 16:38:00,
2013-02-01 11:43:00,11.3,4.6,30.36,West,273,9.0,19.0,74,0.00,,---,0.00,VWS V14.00,2013-02-01 16:43:00,
2013-02-01 11:48:00,11.2,4.2,30.36,West,273,11.0,19.0,73,0.00,,---,0.00,VWS V14.00,2013-02-01 16:48:00,
2013-02-01 11:53:00,11.2,4.0,30.36,West,273,13.0,19.0,72,0.00,,---,0.00,VWS V14.00,2013-02-01 16:53:00,
2013-02-01 11:58:00,11.3,4.3,30.36,West,273,9.0,19.0,73,0.00,,---,0.00,VWS V14.00,2013-02-01 16:58:00,
2013-02-01 12:03:00,11.6,4.9,30.36,West,273,13.0,16.0,74,0.00,,---,0.00,VWS V14.00,2013-02-01 17:03:00,
2013-02-01 12:08:00,12.0,5.6,30.36,West,273,4.0,16.0,75,0.00,,---,0.00,VWS V14.00,2013-02-01 17:08:00,
2013-02-01 12:13:00,12.5,5.8,30.36,West,274,6.0,16.0,74,0.00,,---,0.00,VWS V14.00,2013-02-01 17:13:00,
2013-02-01 12:18:00,12.7,6.0,30.36,West,274,5.0,16.0,74,0.00,,---,0.00,VWS V14.00,2013-02-01 17:18:00,
2013-02-01 12:23:00,12.5,5.2,30.36,West,273,8.0,16.0,72,0.00,,---,0.00,VWS V14.00,2013-02-01 17:23:00,
2013-02-01 12:28:00,12.4,5.1,30.36,West,273,5.0,16.0,72,0.00,,---,0.00,VWS V14.00,2013-02-01 17:28:00,
2013-02-01 12:33:00,12.6,5.6,30.36,West,273,7.0,14.0,73,0.00,,---,0.00,VWS V14.00,2013-02-01 17:33:00,
2013-02-01 12:38:00,12.8,5.5,30.36,West,274,8.0,14.0,72,0.00,,---,0.00,VWS V14.00,2013-02-01 17:38:00,
2013-02-01 12:43:00,12.4,5.1,30.36,West,274,9.0,19.0,72,0.00,,---,0.00,VWS V14.00,2013-02-01 17:43:00,
2013-02-01 12:48:00,12.1,5.1,30.36,West,273,9.0,19.0,73,0.00,,---,0.00,VWS V14.00,2013-02-01 17:48:00,
2013-02-01 12:53:00,12.2,4.9,30.36,West,274,15.0,19.0,72,0.00,,---,0.00,VWS V14.00,2013-02-01 17:53:00,
2013-02-01 12:58:00,12.5,5.8,30.36,West,273,5.0,19.0,74,0.00,,---,0.00,VWS V14.00,2013-02-01 17:58:00,
2013-02-01 13:03:00,12.7,5.7,30.36,West,273,11.0,12.0,73,0.00,,---,0.00,VWS V14.00,2013-02-01 18:03:00,
2013-02-01 13:08:00,12.6,5.6,30.36,West,273,14.0,18.0,73,0.00,,---,0.00,VWS V14.00,2013-02-01 18:08:00,
2013-02-01 13:13:00,12.2,4.3,30.36,West,273,5.0,18.0,70,0.00,,---,0.00,VWS V14.00,2013-02-01 18:13:00,
2013-02-01 13:19:00,11.9,4.6,30.37,West,273,12.0,18.0,72,0.00,,---,0.00,VWS V14.00,2013-02-01 18:19:00,
2013-02-01 13:24:00,11.6,4.3,30.37,West,273,18.0,19.0,72,0.00,,---,0.00,VWS V14.00,2013-02-01 18:24:00,
2013-02-01 13:29:00,11.7,4.7,30.36,West,273,11.0,19.0,73,0.00,,---,0.00,VWS V14.00,2013-02-01 18:29:00,
2013-02-01 13:34:00,11.5,3.9,30.37,West,273,14.0,18.0,71,0.00,,---,0.00,VWS V14.00,2013-02-01 18:34:00,
2013-02-01 13:39:00,11.5,4.2,30.37,West,273,8.0,18.0,72,0.00,,---,0.00,VWS V14.00,2013-02-01 18:39:00,
2013-02-01 13:44:00,11.7,4.7,30.37,West,274,6.0,18.0,73,0.00,,---,0.00,VWS V14.00,2013-02-01 18:44:00,
2013-02-01 13:49:00,11.9,4.9,30.36,West,274,7.0,18.0,73,0.00,,---,0.00,VWS V14.00,2013-02-01 18:49:00,
2013-02-01 13:54:00,11.8,4.2,30.36,West,273,8.0,18.0,71,0.00,,---,0.00,VWS V14.00,2013-02-01 18:54:00,
2013-02-01 13:59:00,11.6,4.0,30.36,West,273,8.0,18.0,71,0.00,,---,0.00,VWS V14.00,2013-02-01 18:59:00,
2013-02-01 14:04:00,11.3,4.1,30.36,West,273,6.0,14.0,72,0.00,,---,0.00,VWS V14.00,2013-02-01 19:04:00,
2013-02-01 14:09:00,11.0,3.5,30.36,West,273,12.0,14.0,71,0.00,,---,0.00,VWS V14.00,2013-02-01 19:09:00,
2013-02-01 14:14:00,11.0,3.8,30.37,West,273,8.0,16.0,72,0.00,,---,0.00,VWS V14.00,2013-02-01 19:14:00,
2013-02-01 14:19:00,11.2,4.0,30.36,West,273,8.0,16.0,72,0.00,,---,0.00,VWS V14.00,2013-02-01 19:19:00,
2013-02-01 14:24:00,11.4,3.8,30.36,West,273,12.0,19.0,71,0.00,,---,0.00,VWS V14.00,2013-02-01 19:24:00,
2013-02-01 14:29:00,11.4,3.5,30.36,West,273,8.0,19.0,70,0.00,,---,0.00,VWS V14.00,2013-02-01 19:29:00,
2013-02-01 14:34:00,11.8,4.2,30.36,West,273,4.0,14.0,71,0.00,,---,0.00,VWS V14.00,2013-02-01 19:34:00,
2013-02-01 14:39:00,11.5,3.3,30.36,West,273,0.0,16.0,69,0.00,,---,0.00,VWS V14.00,2013-02-01 19:39:00,
2013-02-01 14:44:00,11.6,3.7,30.36,West,273,8.0,16.0,70,0.00,,---,0.00,VWS V14.00,2013-02-01 19:44:00,
2013-02-01 14:49:00,11.5,3.3,30.36,West,273,6.0,16.0,69,0.00,,---,0.00,VWS V14.00,2013-02-01 19:49:00,
2013-02-01 14:54:00,11.2,3.3,30.36,West,273,11.0,16.0,70,0.00,,---,0.00,VWS V14.00,2013-02-01 19:54:00,
2013-02-01 14:59:00,11.3,3.4,30.35,West,274,7.0,16.0,70,0.00,,---,0.00,VWS V14.00,2013-02-01 19:59:00,
2013-02-01 15:05:00,11.0,3.2,30.35,West,273,11.0,13.0,70,0.00,,---,0.00,VWS V14.00,2013-02-01 20:05:00,
2013-02-01 15:10:00,10.9,3.7,30.35,West,273,1.0,13.0,72,0.00,,---,0.00,VWS V14.00,2013-02-01 20:10:00,
2013-02-01 15:15:00,11.0,4.3,30.36,West,273,6.0,13.0,74,0.00,,---,0.00,VWS V14.00,2013-02-01 20:15:00,
2013-02-01 15:20:00,11.2,4.8,30.35,West,273,7.0,14.0,75,0.00,,---,0.00,VWS V14.00,2013-02-01 20:20:00,
2013-02-01 15:25:00,11.7,4.7,30.35,West,273,2.0,18.0,73,0.00,,---,0.00,VWS V14.00,2013-02-01 20:25:00,
2013-02-01 15:30:00,12.1,4.8,30.35,West,273,4.0,6.0,72,0.00,,---,0.00,VWS V14.00,2013-02-01 20:30:00,
2013-02-01 15:35:00,12.1,4.2,30.35,SW,235,7.0,16.0,70,0.00,,---,0.00,VWS V14.00,2013-02-01 20:35:00,
2013-02-01 15:40:00,11.4,3.5,30.35,West,271,8.0,16.0,70,0.00,,---,0.00,VWS V14.00,2013-02-01 20:40:00,
2013-02-01 15:45:00,11.5,4.2,30.35,WSW,251,6.0,16.0,72,0.00,,---,0.00,VWS V14.00,2013-02-01 20:45:00,
2013-02-01 15:50:00,11.6,4.0,30.36,WSW,243,3.0,16.0,71,0.00,,---,0.00,VWS V14.00,2013-02-01 20:50:00,
2013-02-01 15:55:00,11.4,3.8,30.36,WSW,248,8.0,16.0,71,0.00,,---,0.00,VWS V14.00,2013-02-01 20:55:00,
2013-02-01 16:00:00,11.2,4.0,30.35,WSW,241,2.0,7.0,72,0.00,,---,0.00,VWS V14.00,2013-02-01 21:00:00,
2013-02-01 16:05:00,11.1,4.2,30.35,West,261,4.0,11.0,73,0.00,,---,0.00,VWS V14.00,2013-02-01 21:05:00,
2013-02-01 16:10:00,11.2,4.5,30.35,WSW,237,8.0,11.0,74,0.00,,---,0.00,VWS V14.00,2013-02-01 21:10:00,
2013-02-01 16:15:00,11.3,4.3,30.35,WSW,258,7.0,12.0,73,0.00,,---,0.00,VWS V14.00,2013-02-01 21:15:00,
2013-02-01 16:20:00,11.5,4.5,30.35,SW,236,1.0,12.0,73,0.00,,---,0.00,VWS V14.00,2013-02-01 21:20:00,
2013-02-01 16:25:00,11.6,4.3,30.35,WNW,285,5.0,17.0,72,0.00,,---,0.00,VWS V14.00,2013-02-01 21:25:00,
2013-02-01 16:30:00,11.6,4.6,30.35,West,259,10.0,15.0,73,0.00,,---,0.00,VWS V14.00,2013-02-01 21:30:00,
2013-02-01 16:36:00,11.6,4.6,30.35,WSW,252,5.0,15.0,73,0.00,,---,0.00,VWS V14.00,2013-02-01 21:36:00,
2013-02-01 16:41:00,11.6,4.3,30.36,WSW,252,8.0,15.0,72,0.00,,---,0.00,VWS V14.00,2013-02-01 21:41:00,
2013-02-01 16:46:00,11.6,4.6,30.35,WSW,242,7.0,15.0,73,0.00,,---,0.00,VWS V14.00,2013-02-01 21:46:00,
2013-02-01 16:51:00,11.7,5.0,30.35,WNW,288,5.0,15.0,74,0.00,,---,0.00,VWS V14.00,2013-02-01 21:51:00,
2013-02-01 16:56:00,11.8,4.8,30.35,WSW,244,11.0,15.0,73,0.00,,---,0.00,VWS V14.00,2013-02-01 21:56:00,
2013-02-01 17:01:00,11.7,4.7,30.35,WSW,246,7.0,11.0,73,0.00,,---,0.00,VWS V14.00,2013-02-01 22:01:00,
2013-02-01 17:06:00,11.7,4.7,30.35,West,276,5.0,15.0,73,0.00,,---,0.00,VWS V14.00,2013-02-01 22:06:00,
2013-02-01 17:11:00,11.7,4.7,30.35,WSW,248,8.0,15.0,73,0.00,,---,0.00,VWS V14.00,2013-02-01 22:11:00,
2013-02-01 17:16:00,11.8,4.8,30.35,SW,224,5.0,15.0,73,0.00,,---,0.00,VWS V14.00,2013-02-01 22:16:00,
2013-02-01 17:21:00,11.9,4.6,30.35,SW,230,2.0,15.0,72,0.00,,---,0.00,VWS V14.00,2013-02-01 22:21:00,
2013-02-01 17:26:00,12.0,4.7,30.35,WSW,256,6.0,15.0,72,0.00,,---,0.00,VWS V14.00,2013-02-01 22:26:00,
2013-02-01 17:31:00,11.8,4.5,30.35,WSW,252,3.0,12.0,72,0.00,,---,0.00,VWS V14.00,2013-02-01 22:31:00,
2013-02-01 17:36:00,11.8,4.5,30.35,West,261,5.0,12.0,72,0.00,,---,0.00,VWS V14.00,2013-02-01 22:36:00,
2013-02-01 17:41:00,11.7,4.4,30.35,WSW,254,10.0,14.0,72,0.00,,---,0.00,VWS V14.00,2013-02-01 22:41:00,
2013-02-01 17:46:00,11.8,4.8,30.35,West,268,2.0,14.0,73,0.00,,---,0.00,VWS V14.00,2013-02-01 22:46:00,
2013-02-01 17:52:00,11.9,4.9,30.35,WSW,239,4.0,14.0,73,0.00,,---,0.00,VWS V14.00,2013-02-01 22:52:00,
2013-02-01 17:57:00,12.0,5.0,30.35,SW,230,3.0,14.0,73,0.00,,---,0.00,VWS V14.00,2013-02-01 22:57:00,
2013-02-01 18:02:00,11.9,4.6,30.35,WSW,258,5.0,15.0,72,0.00,,---,0.00,VWS V14.00,2013-02-01 23:02:00,
2013-02-01 18:07:00,11.9,4.9,30.35,West,271,7.0,15.0,73,0.00,,---,0.00,VWS V14.00,2013-02-01 23:07:00,
2013-02-01 18:12:00,11.9,4.9,30.35,West,264,7.0,15.0,73,0.00,,---,0.00,VWS V14.00,2013-02-01 23:12:00,
2013-02-01 18:17:00,11.9,4.9,30.35,SW,229,7.0,15.0,73,0.00,,---,0.00,VWS V14.00,2013-02-01 23:17:00,
2013-02-01 18:22:00,12.0,5.0,30.35,WSW,240,2.0,15.0,73,0.00,,---,0.00,VWS V14.00,2013-02-01 23:22:00,
2013-02-01 18:27:00,12.1,5.1,30.35,WSW,251,3.0,15.0,73,0.00,,---,0.00,VWS V14.00,2013-02-01 23:27:00,
2013-02-01 18:32:00,12.1,5.1,30.35,WSW,253,4.0,7.0,73,0.00,,---,0.00,VWS V14.00,2013-02-01 23:32:00,
2013-02-01 18:37:00,12.1,5.1,30.35,WSW,250,5.0,7.0,73,0.00,,---,0.00,VWS V14.00,2013-02-01 23:37:00,
2013-02-01 18:42:00,12.1,5.1,30.34,SW,236,3.0,8.0,73,0.00,,---,0.00,VWS V14.00,2013-02-01 23:42:00,
2013-02-01 18:47:00,12.1,5.4,30.34,West,263,3.0,8.0,74,0.00,,---,0.00,VWS V14.00,2013-02-01 23:47:00,
2013-02-01 18:52:00,12.2,5.5,30.34,WSW,247,2.0,8.0,74,0.00,,---,0.00,VWS V14.00,2013-02-01 23:52:00,
2013-02-01 18:57:00,12.3,5.6,30.34,WSW,241,2.0,8.0,74,0.00,,---,0.00,VWS V14.00,2013-02-01 23:57:00,
2013-02-01 19:02:00,12.3,5.9,30.35,WSW,250,2.0,5.0,75,0.00,,---,0.00,VWS V14.00,2013-02-02 00:02:00,
2013-02-01 19:07:00,12.4,6.0,30.35,West,259,6.0,6.0,75,0.00,,---,0.00,VWS V14.00,2013-02-02 00:07:00,
2013-02-01 19:12:00,12.6,5.9,30.35,WSW,242,4.0,12.0,74,0.00,,---,0.00,VWS V14.00,2013-02-02 00:12:00,
2013-02-01 19:17:00,12.8,5.5,30.35,West,263,8.0,13.0,72,0.00,,---,0.00,VWS V14.00,2013-02-02 00:17:00,
2013-02-01 19:22:00,13.0,5.7,30.35,WSW,247,3.0,13.0,72,0.00,,---,0.00,VWS V14.00,2013-02-02 00:22:00,
2013-02-01 19:28:00,13.0,5.7,30.35,WSW,246,3.0,13.0,72,0.00,,---,0.00,VWS V14.00,2013-02-02 00:28:00,
2013-02-01 19:33:00,13.2,5.9,30.35,West,259,3.0,12.0,72,0.00,,---,0.00,VWS V14.00,2013-02-02 00:33:00,
2013-02-01 19:38:00,13.2,5.9,30.35,West,261,1.0,12.0,72,0.00,,---,0.00,VWS V14.00,2013-02-02 00:38:00,
2013-02-01 19:43:00,13.3,6.0,30.35,SW,229,0.0,14.0,72,0.00,,---,0.00,VWS V14.00,2013-02-02 00:43:00,
2013-02-01 19:48:00,13.3,6.0,30.35,WSW,241,4.0,14.0,72,0.00,,---,0.00,VWS V14.00,2013-02-02 00:48:00,
2013-02-01 19:53:00,13.3,6.3,30.34,SW,229,2.0,14.0,73,0.00,,---,0.00,VWS V14.00,2013-02-02 00:53:00,
2013-02-01 19:58:00,13.3,6.3,30.34,WSW,246,2.0,14.0,73,0.00,,---,0.00,VWS V14.00,2013-02-02 00:58:00,
2013-02-01 20:03:00,13.3,6.3,30.34,WSW,244,1.0,5.0,73,0.00,,---,0.00,VWS V14.00,2013-02-02 01:03:00,
2013-02-01 20:08:00,13.3,6.3,30.34,WSW,248,2.0,11.0,73,0.00,,---,0.00,VWS V14.00,2013-02-02 01:08:00,
2013-02-01 20:13:00,13.4,6.4,30.34,West,260,3.0,11.0,73,0.00,,---,0.00,VWS V14.00,2013-02-02 01:13:00,
2013-02-01 20:18:00,13.4,6.4,30.34,WSW,252,3.0,11.0,73,0.00,,---,0.00,VWS V14.00,2013-02-02 01:18:00,
2013-02-01 20:23:00,13.3,6.3,30.34,WSW,240,6.0,11.0,73,0.00,,---,0.00,VWS V14.00,2013-02-02 01:23:00,
2013-02-01 20:28:00,13.2,6.5,30.33,WSW,244,1.0,11.0,74,0.00,,---,0.00,VWS V14.00,2013-02-02 01:28:00,
2013-02-01 20:33:00,13.1,6.4,30.33,WSW,244,1.0,3.0,74,0.00,,---,0.00,VWS V14.00,2013-02-02 01:33:00,
2013-02-01 20:38:00,13.0,6.3,30.33,WSW,245,2.0,6.0,74,0.00,,---,0.00,VWS V14.00,2013-02-02 01:38:00,
2013-02-01 20:43:00,13.0,6.3,30.33,WSW,238,3.0,7.0,74,0.00,,---,0.00,VWS V14.00,2013-02-02 01:43:00,
2013-02-01 20:48:00,12.9,6.5,30.33,WSW,237,0.0,7.0,75,0.00,,---,0.00,VWS V14.00,2013-02-02 01:48:00,
2013-02-01 20:53:00,12.9,6.5,30.33,SW,231,0.0,7.0,75,0.00,,---,0.00,VWS V14.00,2013-02-02 01:53:00,
2013-02-01 20:58:00,12.8,6.7,30.33,SW,230,0.0,7.0,76,0.00,,---,0.00,VWS V14.00,2013-02-02 01:58:00,
2013-02-01 21:04:00,12.8,6.7,30.33,WSW,243,1.0,6.0,76,0.00,,---,0.00,VWS V14.00,2013-02-02 02:04:00,
2013-02-01 21:09:00,12.8,6.7,30.33,SW,233,0.0,6.0,76,0.00,,---,0.00,VWS V14.00,2013-02-02 02:09:00,
2013-02-01 21:14:00,12.8,6.7,30.32,SW,234,1.0,6.0,76,0.00,,---,0.00,VWS V14.00,2013-02-02 02:14:00,
2013-02-01 21:19:00,12.8,6.7,30.32,SW,234,2.0,6.0,76,0.00,,---,0.00,VWS V14.00,2013-02-02 02:19:00,
2013-02-01 21:24:00,12.7,6.9,30.32,WSW,252,5.0,6.0,77,0.00,,---,0.00,VWS V14.00,2013-02-02 02:24:00,
2013-02-01 21:29:00,12.7,6.9,30.32,SW,234,0.0,6.0,77,0.00,,---,0.00,VWS V14.00,2013-02-02 02:29:00,
2013-02-01 21:34:00,12.7,6.9,30.32,WSW,240,1.0,6.0,77,0.00,,---,0.00,VWS V14.00,2013-02-02 02:34:00,
2013-02-01 21:39:00,12.7,6.9,30.32,WSW,240,0.0,6.0,77,0.00,,---,0.00,VWS V14.00,2013-02-02 02:39:00,
2013-02-01 21:44:00,12.7,6.9,30.32,WSW,245,2.0,6.0,77,0.00,,---,0.00,VWS V14.00,2013-02-02 02:44:00,
2013-02-01 21:49:00,12.7,6.9,30.32,WSW,238,0.0,6.0,77,0.00,,---,0.00,VWS V14.00,2013-02-02 02:49:00,
2013-02-01 21:54:00,12.6,6.8,30.32,WSW,240,2.0,6.0,77,0.00,,---,0.00,VWS V14.00,2013-02-02 02:54:00,
2013-02-01 21:59:00,12.6,6.8,30.32,WSW,250,1.0,8.0,77,0.00,,---,0.00,VWS V14.00,2013-02-02 02:59:00,
2013-02-01 22:04:00,12.7,6.9,30.32,WSW,251,3.0,5.0,77,0.00,,---,0.00,VWS V14.00,2013-02-02 03:04:00,
2013-02-01 22:10:00,12.7,6.9,30.33,WSW,247,2.0,8.0,77,0.00,,---,0.00,VWS V14.00,2013-02-02 03:10:00,
2013-02-01 22:15:00,12.8,7.0,30.32,WSW,246,0.0,8.0,77,0.00,,---,0.00,VWS V14.00,2013-02-02 03:15:00,
2013-02-01 22:20:00,12.8,7.0,30.32,SW,234,0.0,8.0,77,0.00,,---,0.00,VWS V14.00,2013-02-02 03:20:00,
2013-02-01 22:25:00,12.9,7.1,30.32,WSW,240,1.0,8.0,77,0.00,,---,0.00,VWS V14.00,2013-02-02 03:25:00,
2013-02-01 22:30:00,12.9,7.1,30.32,WSW,245,0.0,2.0,77,0.00,,---,0.00,VWS V14.00,2013-02-02 03:30:00,
2013-02-01 22:35:00,13.0,7.2,30.31,SW,221,2.0,5.0,77,0.00,,---,0.00,VWS V14.00,2013-02-02 03:35:00,
2013-02-01 22:40:00,13.0,7.2,30.31,SW,230,4.0,5.0,77,0.00,,---,0.00,VWS V14.00,2013-02-02 03:40:00,
2013-02-01 22:45:00,13.0,7.2,30.31,SW,221,0.0,5.0,77,0.00,,---,0.00,VWS V14.00,2013-02-02 03:45:00,
2013-02-01 22:50:00,13.0,7.2,30.30,SW,228,0.0,5.0,77,0.00,,---,0.00,VWS V14.00,2013-02-02 03:50:00,
2013-02-01 22:55:00,12.9,7.3,30.30,West,264,0.0,5.0,78,0.00,,---,0.00,VWS V14.00,2013-02-02 03:55:00,
2013-02-01 23:00:00,12.9,7.3,30.30,WSW,248,1.0,2.0,78,0.00,,---,0.00,VWS V14.00,2013-02-02 04:00:00,
2013-02-01 23:05:00,12.8,7.2,30.30,WSW,244,6.0,6.0,78,0.00,,---,0.00,VWS V14.00,2013-02-02 04:05:00,
2013-02-01 23:11:00,12.8,7.2,30.30,SW,236,0.0,6.0,78,0.00,,---,0.00,VWS V14.00,2013-02-02 04:11:00,
2013-02-01 23:16:00,12.9,7.3,30.30,SW,229,5.0,10.0,78,0.00,,---,0.00,VWS V14.00,2013-02-02 04:16:00,
2013-02-01 23:21:00,12.9,7.3,30.29,SW,228,0.0,10.0,78,0.00,,---,0.00,VWS V14.00,2013-02-02 04:21:00,
2013-02-01 23:26:00,12.9,7.3,30.29,SW,233,1.0,10.0,78,0.00,,---,0.00,VWS V14.00,2013-02-02 04:26:00,
2013-02-01 23:31:00,12.9,7.3,30.29,SW,221,2.0,3.0,78,0.00,,---,0.00,VWS V14.00,2013-02-02 04:31:00,
2013-02-01 23:36:00,12.9,7.3,30.29,SW,225,1.0,3.0,78,0.00,,---,0.00,VWS V14.00,2013-02-02 04:36:00,
2013-02-01 23:41:00,12.9,7.3,30.29,WSW,239,1.0,5.0,78,0.00,,---,0.00,VWS V14.00,2013-02-02 04:41:00,
2013-02-01 23:46:00,12.9,7.6,30.29,WSW,248,0.0,6.0,79,0.00,,---,0.00,VWS V14.00,2013-02-02 04:46:00,
2013-02-01 23:51:00,12.9,7.6,30.29,WSW,252,1.0,7.0,79,0.00,,---,0.00,VWS V14.00,2013-02-02 04:51:00,
2013-02-01 23:56:00,12.9,7.6,30.29,SW,217,2.0,7.0,79,0.00,,---,0.00,VWS V14.00,2013-02-02 04:56:00,